Time,TemperatureF,DewpointF,PressureIn,WindDirection,WindDirectionDegrees,WindSpeedMPH,WindSpeedGustMPH,Humidity,HourlyPrecipIn,Conditions,Clouds,dailyrainin,SoftwareType,DateUTC
2013-03-03 00:00:00,51.1,44.1,30.02,NW,323,0.0,3.0,77,0.00,,,0.00,meteohub,2013-03-03 05:00:00,
2013-03-03 00:05:00,51.1,44.1,30.02,NW,322,0.0,2.0,77,0.00,,,0.00,meteohub,2013-03-03 05:05:00,
2013-03-03 00:10:00,51.1,44.1,30.02,NW,322,0.0,2.0,77,0.00,,,0.00,meteohub,2013-03-03 05:10:00,
2013-03-03 00:15:00,50.9,43.9,30.01,NW,322,0.0,3.0,77,0.00,,,0.00,meteohub,2013-03-03 05:15:00,
2013-03-03 00:20:00,50.9,43.9,30.01,NW,322,1.0,3.0,77,0.00,,,0.00,meteohub,2013-03-03 05:20:00,
2013-03-03 00:25:00,50.9,44.2,30.01,NW,319,0.0,3.0,78,0.00,,,0.00,meteohub,2013-03-03 05:25:00,
2013-03-03 00:30:00,50.7,44.1,30.01,NW,319,0.0,1.0,78,0.00,,,0.00,meteohub,2013-03-03 05:30:00,
2013-03-03 00:35:00,50.5,43.9,30.01,NW,319,0.0,1.0,78,0.00,,,0.00,meteohub,2013-03-03 05:35:00,
2013-03-03 00:40:00,50.5,44.2,30.01,NNW,329,0.0,0.0,79,0.00,,,0.00,meteohub,2013-03-03 05:40:00,
2013-03-03 00:45:00,50.4,44.1,30.01,North,9,0.0,0.0,79,0.00,,,0.00,meteohub,2013-03-03 05:45:00,
2013-03-03 00:50:00,50.4,44.1,30.01,North,9,0.0,2.0,79,0.00,,,0.00,meteohub,2013-03-03 05:50:00,
2013-03-03 00:55:00,50.2,43.5,30.01,North,5,0.0,2.0,78,0.00,,,0.00,meteohub,2013-03-03 05:55:00,
2013-03-03 01:00:00,50.0,43.2,30.01,NNE,13,0.0,2.0,77,0.00,,,0.00,meteohub,2013-03-03 06:00:00,
2013-03-03 01:05:00,49.8,43.2,30.01,NNE,13,0.0,2.0,78,0.00,,,0.00,meteohub,2013-03-03 06:05:00,
2013-03-03 01:10:00,49.8,43.0,30.02,NNE,13,0.0,2.0,77,0.00,,,0.00,meteohub,2013-03-03 06:10:00,
2013-03-03 01:15:00,49.6,42.8,30.02,North,0,0.0,2.0,77,0.00,,,0.00,meteohub,2013-03-03 06:15:00,
2013-03-03 01:20:00,49.6,42.8,30.02,North,351,0.0,2.0,77,0.00,,,0.00,meteohub,2013-03-03 06:20:00,
2013-03-03 01:25:00,49.6,42.1,30.02,North,351,0.0,2.0,75,0.00,,,0.00,meteohub,2013-03-03 06:25:00,
2013-03-03 01:30:00,49.8,41.9,30.02,NW,305,0.0,2.0,74,0.00,,,0.00,meteohub,2013-03-03 06:30:00,
2013-03-03 01:35:00,49.8,41.9,30.01,NNW,331,0.0,2.0,74,0.00,,,0.00,meteohub,2013-03-03 06:35:00,
2013-03-03 01:40:00,49.6,41.7,30.01,NNW,343,0.0,2.0,74,0.00,,,0.00,meteohub,2013-03-03 06:40:00,
2013-03-03 01:45:00,49.5,41.5,30.01,NNW,343,0.0,2.0,74,0.00,,,0.00,meteohub,2013-03-03 06:45:00,
2013-03-03 01:50:00,49.5,41.5,30.01,NNW,343,0.0,2.0,74,0.00,,,0.00,meteohub,2013-03-03 06:50:00,
2013-03-03 01:55:00,49.3,41.4,30.00,North,5,0.0,2.0,74,0.00,,,0.00,meteohub,2013-03-03 06:55:00,
2013-03-03 02:00:00,49.3,41.4,30.01,North,5,0.0,2.0,74,0.00,,,0.00,meteohub,2013-03-03 07:00:00,
2013-03-03 02:05:00,49.3,41.4,30.01,NW,308,0.0,2.0,74,0.00,,,0.00,meteohub,2013-03-03 07:05:00,
2013-03-03 02:10:00,49.5,41.5,30.00,NW,309,0.0,1.0,74,0.00,,,0.00,meteohub,2013-03-03 07:10:00,
2013-03-03 02:15:00,49.5,41.2,30.00,NNW,332,0.0,1.0,73,0.00,,,0.00,meteohub,2013-03-03 07:15:00,
2013-03-03 02:20:00,49.5,41.2,30.00,NNW,341,0.0,1.0,73,0.00,,,0.00,meteohub,2013-03-03 07:20:00,
2013-03-03 02:25:00,49.6,41.4,29.99,NNW,340,0.0,2.0,73,0.00,,,0.00,meteohub,2013-03-03 07:25:00,
2013-03-03 02:31:00,49.6,41.0,29.99,North,349,0.0,2.0,72,0.00,,,0.00,meteohub,2013-03-03 07:31:00,
2013-03-03 02:36:00,49.6,41.0,29.99,North,5,0.0,4.0,72,0.00,,,0.00,meteohub,2013-03-03 07:36:00,
2013-03-03 02:41:00,49.6,41.4,29.99,North,5,0.0,4.0,73,0.00,,,0.00,meteohub,2013-03-03 07:41:00,
2013-03-03 02:46:00,49.6,41.4,29.99,NW,311,0.0,4.0,73,0.00,,,0.00,meteohub,2013-03-03 07:46:00,
2013-03-03 02:51:00,49.6,41.7,29.99,NNW,329,0.0,2.0,74,0.00,,,0.00,meteohub,2013-03-03 07:51:00,
2013-03-03 02:56:00,49.6,41.7,29.98,NNW,328,0.0,2.0,74,0.00,,,0.00,meteohub,2013-03-03 07:56:00,
2013-03-03 03:01:00,49.6,41.4,29.99,NNW,328,0.0,2.0,73,0.00,,,0.00,meteohub,2013-03-03 08:01:00,
2013-03-03 03:06:00,49.6,41.7,29.99,NW,323,0.0,1.0,74,0.00,,,0.00,meteohub,2013-03-03 08:06:00,
2013-03-03 03:11:00,49.6,41.4,29.99,NW,324,0.0,1.0,73,0.00,,,0.00,meteohub,2013-03-03 08:11:00,
2013-03-03 03:16:00,49.6,41.4,29.99,North,350,0.0,2.0,73,0.00,,,0.00,meteohub,2013-03-03 08:16:00,
2013-03-03 03:21:00,49.6,41.4,29.99,NW,315,0.0,2.0,73,0.00,,,0.00,meteohub,2013-03-03 08:21:00,
2013-03-03 03:26:00,49.8,41.5,29.99,NW,321,0.0,4.0,73,0.00,,,0.00,meteohub,2013-03-03 08:26:00,
2013-03-03 03:31:00,49.8,41.5,29.98,NW,316,0.0,4.0,73,0.00,,,0.00,meteohub,2013-03-03 08:31:00,
2013-03-03 03:36:00,49.8,41.5,29.98,NNW,329,0.0,4.0,73,0.00,,,0.00,meteohub,2013-03-03 08:36:00,
2013-03-03 03:41:00,49.8,41.9,29.99,NW,313,0.0,3.0,74,0.00,,,0.00,meteohub,2013-03-03 08:41:00,
2013-03-03 03:46:00,49.8,42.3,29.99,NW,310,0.0,3.0,75,0.00,,,0.00,meteohub,2013-03-03 08:46:00,
2013-03-03 03:51:00,49.6,42.1,29.99,WNW,292,1.0,4.0,75,0.00,,,0.00,meteohub,2013-03-03 08:51:00,
2013-03-03 03:56:00,49.6,42.4,29.98,WNW,285,0.0,4.0,76,0.00,,,0.00,meteohub,2013-03-03 08:56:00,
2013-03-03 04:01:00,49.6,42.4,29.98,WNW,285,0.0,4.0,76,0.00,,,0.00,meteohub,2013-03-03 09:01:00,
2013-03-03 04:06:00,49.6,42.8,29.97,WNW,285,0.0,2.0,77,0.00,,,0.00,meteohub,2013-03-03 09:06:00,
2013-03-03 04:11:00,49.6,42.8,29.97,WNW,285,0.0,2.0,77,0.00,,,0.00,meteohub,2013-03-03 09:11:00,
2013-03-03 04:16:00,49.6,43.3,29.97,WNW,285,0.0,1.0,79,0.00,,,0.00,meteohub,2013-03-03 09:16:00,
2013-03-03 04:21:00,49.5,42.8,29.97,West,277,0.0,1.0,78,0.00,,,0.00,meteohub,2013-03-03 09:21:00,
2013-03-03 04:26:00,49.5,43.2,29.97,West,275,0.0,2.0,79,0.00,,,0.00,meteohub,2013-03-03 09:26:00,
2013-03-03 04:31:00,49.5,42.8,29.97,West,279,0.0,2.0,78,0.00,,,0.00,meteohub,2013-03-03 09:31:00,
2013-03-03 04:36:00,49.6,43.3,29.97,WNW,294,1.0,2.0,79,0.00,,,0.00,meteohub,2013-03-03 09:36:00,
2013-03-03 04:41:00,49.6,43.3,29.97,NW,322,0.0,2.0,79,0.00,,,0.00,meteohub,2013-03-03 09:41:00,
2013-03-03 04:46:00,49.6,43.3,29.97,WNW,302,0.0,2.0,79,0.00,,,0.00,meteohub,2013-03-03 09:46:00,
2013-03-03 04:51:00,49.6,43.3,29.97,NW,325,1.0,4.0,79,0.00,,,0.00,meteohub,2013-03-03 09:51:00,
2013-03-03 04:56:00,49.8,43.2,29.98,WNW,290,0.0,4.0,78,0.00,,,0.00,meteohub,2013-03-03 09:56:00,
2013-03-03 05:01:00,49.8,43.2,29.98,WNW,302,1.0,4.0,78,0.00,,,0.00,meteohub,2013-03-03 10:01:00,
2013-03-03 05:06:00,49.8,43.2,29.98,WNW,298,0.0,4.0,78,0.00,,,0.00,meteohub,2013-03-03 10:06:00,
2013-03-03 05:11:00,49.8,43.5,29.98,NW,315,0.0,4.0,79,0.00,,,0.00,meteohub,2013-03-03 10:11:00,
2013-03-03 05:16:00,50.0,43.7,29.98,NW,309,0.0,4.0,79,0.00,,,0.00,meteohub,2013-03-03 10:16:00,
2013-03-03 05:21:00,50.0,44.1,29.99,NW,307,0.0,4.0,80,0.00,,,0.00,meteohub,2013-03-03 10:21:00,
2013-03-03 05:26:00,50.0,44.1,29.99,NW,307,0.0,2.0,80,0.00,,,0.00,meteohub,2013-03-03 10:26:00,
2013-03-03 05:31:00,50.2,44.6,29.99,WNW,286,0.0,4.0,81,0.00,,,0.00,meteohub,2013-03-03 10:31:00,
2013-03-03 05:36:00,50.2,44.6,29.99,WNW,302,0.0,4.0,81,0.00,,,0.00,meteohub,2013-03-03 10:36:00,
2013-03-03 05:41:00,50.2,45.0,29.99,NW,314,0.0,4.0,82,0.00,,,0.00,meteohub,2013-03-03 10:41:00,
2013-03-03 05:46:00,50.4,45.3,29.99,NW,314,0.0,3.0,83,0.00,,,0.00,meteohub,2013-03-03 10:46:00,
2013-03-03 05:51:00,50.4,45.7,30.00,WNW,301,0.0,3.0,84,0.00,,,0.00,meteohub,2013-03-03 10:51:00,
2013-03-03 05:56:00,50.4,46.0,30.00,WNW,301,0.0,4.0,85,0.00,,,0.00,meteohub,2013-03-03 10:56:00,
2013-03-03 06:01:00,50.2,45.9,30.00,NW,313,0.0,4.0,85,0.00,,,0.00,meteohub,2013-03-03 11:01:00,
2013-03-03 06:06:00,50.2,46.2,29.99,NW,326,0.0,4.0,86,0.00,,,0.00,meteohub,2013-03-03 11:06:00,
2013-03-03 06:11:00,50.2,46.2,29.99,NW,313,0.0,2.0,86,0.00,,,0.00,meteohub,2013-03-03 11:11:00,
2013-03-03 06:16:00,50.2,46.4,29.99,NW,313,0.0,1.0,87,0.00,,,0.00,meteohub,2013-03-03 11:16:00,
2013-03-03 06:21:00,50.0,46.2,30.00,WNW,290,0.0,3.0,87,0.00,,,0.00,meteohub,2013-03-03 11:21:00,
2013-03-03 06:26:00,50.0,46.2,30.00,NW,306,0.0,3.0,87,0.00,,,0.00,meteohub,2013-03-03 11:26:00,
2013-03-03 06:32:00,49.8,45.9,30.00,WNW,282,1.0,3.0,86,0.00,,,0.00,meteohub,2013-03-03 11:32:00,
2013-03-03 06:37:00,49.8,46.0,30.00,West,266,0.0,3.0,87,0.00,,,0.00,meteohub,2013-03-03 11:37:00,
2013-03-03 06:42:00,49.8,46.0,30.00,West,275,0.0,3.0,87,0.00,,,0.00,meteohub,2013-03-03 11:42:00,
2013-03-03 06:47:00,49.8,46.0,30.00,West,277,0.0,3.0,87,0.00,,,0.00,meteohub,2013-03-03 11:47:00,
2013-03-03 06:52:00,50.0,46.6,30.01,NW,309,0.0,3.0,88,0.00,,,0.00,meteohub,2013-03-03 11:52:00,
2013-03-03 06:57:00,49.8,46.0,30.00,NW,321,0.0,2.0,87,0.00,,,0.00,meteohub,2013-03-03 11:57:00,
2013-03-03 07:02:00,49.8,46.0,30.00,NNW,328,0.0,2.0,87,0.00,,,0.00,meteohub,2013-03-03 12:02:00,
2013-03-03 07:07:00,49.6,45.9,30.01,NW,312,0.0,4.0,87,0.00,,,0.00,meteohub,2013-03-03 12:07:00,
2013-03-03 07:12:00,49.6,46.2,30.01,NW,322,0.0,4.0,88,0.00,,,0.00,meteohub,2013-03-03 12:12:00,
2013-03-03 07:17:00,49.6,46.2,30.00,NW,326,0.0,4.0,88,0.00,,,0.00,meteohub,2013-03-03 12:17:00,
2013-03-03 07:22:00,49.8,46.4,30.00,NW,325,0.0,2.0,88,0.00,,,0.00,meteohub,2013-03-03 12:22:00,
2013-03-03 07:27:00,50.0,46.6,30.00,NNW,346,0.0,1.0,88,0.00,,,0.00,meteohub,2013-03-03 12:27:00,
2013-03-03 07:32:00,50.0,46.2,30.00,NW,325,2.0,2.0,87,0.00,,,0.00,meteohub,2013-03-03 12:32:00,
2013-03-03 07:37:00,50.0,46.0,30.01,NNW,327,2.0,2.0,86,0.00,,,0.00,meteohub,2013-03-03 12:37:00,
2013-03-03 07:42:00,50.0,46.0,30.01,North,0,0.0,3.0,86,0.00,,,0.00,meteohub,2013-03-03 12:42:00,
2013-03-03 07:47:00,50.2,45.9,30.01,North,355,0.0,3.0,85,0.00,,,0.00,meteohub,2013-03-03 12:47:00,
2013-03-03 07:52:00,50.2,45.1,30.01,NNW,328,1.0,3.0,83,0.00,,,0.00,meteohub,2013-03-03 12:52:00,
2013-03-03 07:57:00,50.5,45.5,30.02,WNW,285,4.0,5.0,83,0.00,,,0.00,meteohub,2013-03-03 12:57:00,
2013-03-03 08:02:00,50.9,45.0,30.02,NW,318,0.0,5.0,80,0.00,,,0.00,meteohub,2013-03-03 13:02:00,
2013-03-03 08:07:00,51.1,44.8,30.02,NNW,328,1.0,6.0,79,0.00,,,0.00,meteohub,2013-03-03 13:07:00,
2013-03-03 08:12:00,51.3,44.6,30.02,NW,309,0.0,6.0,78,0.00,,,0.00,meteohub,2013-03-03 13:12:00,
2013-03-03 08:17:00,51.6,44.2,30.02,NW,321,1.0,6.0,76,0.00,,,0.00,meteohub,2013-03-03 13:17:00,
2013-03-03 08:22:00,52.3,45.3,30.02,WNW,293,0.0,5.0,77,0.00,,,0.00,meteohub,2013-03-03 13:22:00,
2013-03-03 08:27:00,53.1,45.0,30.02,NNW,342,3.0,5.0,74,0.00,,,0.00,meteohub,2013-03-03 13:27:00,
2013-03-03 08:32:00,53.4,44.2,30.02,NW,316,1.0,6.0,71,0.00,,,0.00,meteohub,2013-03-03 13:32:00,
2013-03-03 08:37:00,53.4,44.2,30.03,North,350,1.0,6.0,71,0.00,,,0.00,meteohub,2013-03-03 13:37:00,
2013-03-03 08:42:00,53.2,43.3,30.03,North,0,1.0,6.0,69,0.00,,,0.00,meteohub,2013-03-03 13:42:00,
2013-03-03 08:47:00,52.7,41.2,30.04,NW,320,0.0,6.0,65,0.00,,,0.00,meteohub,2013-03-03 13:47:00,
2013-03-03 08:52:00,52.3,41.4,30.04,North,9,6.0,6.0,66,0.00,,,0.00,meteohub,2013-03-03 13:52:00,
2013-03-03 08:57:00,52.2,40.8,30.04,WNW,286,4.0,6.0,65,0.00,,,0.00,meteohub,2013-03-03 13:57:00,
2013-03-03 09:02:00,52.2,40.8,30.04,ENE,65,4.0,6.0,65,0.00,,,0.00,meteohub,2013-03-03 14:02:00,
2013-03-03 09:07:00,52.3,40.5,30.04,North,355,0.0,6.0,64,0.00,,,0.00,meteohub,2013-03-03 14:07:00,
2013-03-03 09:12:00,52.5,41.5,30.04,NW,304,0.0,6.0,66,0.00,,,0.00,meteohub,2013-03-03 14:12:00,
2013-03-03 09:17:00,53.1,40.8,30.04,North,355,1.0,6.0,63,0.00,,,0.00,meteohub,2013-03-03 14:17:00,
2013-03-03 09:22:00,53.2,41.0,30.04,NNW,342,5.0,6.0,63,0.00,,,0.00,meteohub,2013-03-03 14:22:00,
2013-03-03 09:27:00,53.4,40.3,30.04,NW,319,1.0,7.0,61,0.00,,,0.00,meteohub,2013-03-03 14:27:00,
2013-03-03 09:32:00,53.8,41.0,30.04,North,355,2.0,7.0,62,0.00,,,0.00,meteohub,2013-03-03 14:32:00,
2013-03-03 09:37:00,54.0,40.5,30.04,NW,311,5.0,7.0,60,0.00,,,0.00,meteohub,2013-03-03 14:37:00,
2013-03-03 09:42:00,54.1,40.6,30.05,NW,325,1.0,7.0,60,0.00,,,0.00,meteohub,2013-03-03 14:42:00,
2013-03-03 09:47:00,54.3,40.8,30.04,NNW,327,0.0,5.0,60,0.00,,,0.00,meteohub,2013-03-03 14:47:00,
2013-03-03 09:52:00,54.7,40.3,30.05,North,5,4.0,5.0,58,0.00,,,0.00,meteohub,2013-03-03 14:52:00,
2013-03-03 09:57:00,54.7,40.6,30.05,NW,311,1.0,7.0,59,0.00,,,0.00,meteohub,2013-03-03 14:57:00,
2013-03-03 10:02:00,54.9,40.3,30.05,NNW,329,2.0,7.0,58,0.00,,,0.00,meteohub,2013-03-03 15:02:00,
2013-03-03 10:07:00,55.0,41.4,30.05,NW,320,6.0,8.0,60,0.00,,,0.00,meteohub,2013-03-03 15:07:00,
2013-03-03 10:12:00,55.0,41.0,30.05,WNW,287,0.0,8.0,59,0.00,,,0.00,meteohub,2013-03-03 15:12:00,
2013-03-03 10:17:00,55.6,41.5,30.05,North,355,1.0,9.0,59,0.00,,,0.00,meteohub,2013-03-03 15:17:00,
2013-03-03 10:22:00,56.1,41.5,30.05,NW,317,0.0,9.0,58,0.00,,,0.00,meteohub,2013-03-03 15:22:00,
2013-03-03 10:27:00,56.3,40.8,30.05,NW,306,1.0,9.0,56,0.00,,,0.00,meteohub,2013-03-03 15:27:00,
2013-03-03 10:32:00,56.1,41.2,30.05,NNW,327,1.0,8.0,57,0.00,,,0.00,meteohub,2013-03-03 15:32:00,
2013-03-03 10:37:00,56.5,41.4,30.05,NW,320,2.0,8.0,57,0.00,,,0.00,meteohub,2013-03-03 15:37:00,
2013-03-03 10:42:00,56.5,41.0,30.04,NW,319,0.0,8.0,56,0.00,,,0.00,meteohub,2013-03-03 15:42:00,
2013-03-03 10:47:00,57.2,41.7,30.05,WNW,303,1.0,7.0,56,0.00,,,0.00,meteohub,2013-03-03 15:47:00,
2013-03-03 10:52:00,57.9,41.9,30.05,NNW,346,0.0,7.0,55,0.00,,,0.00,meteohub,2013-03-03 15:52:00,
2013-03-03 10:57:00,57.7,40.3,30.05,WNW,291,0.0,6.0,52,0.00,,,0.00,meteohub,2013-03-03 15:57:00,
2013-03-03 11:02:00,57.7,41.2,30.05,NNE,28,4.0,6.0,54,0.00,,,0.00,meteohub,2013-03-03 16:02:00,
2013-03-03 11:07:00,57.6,41.5,30.04,NNE,13,1.0,7.0,55,0.00,,,0.00,meteohub,2013-03-03 16:07:00,
2013-03-03 11:12:00,57.9,41.4,30.04,WNW,302,3.0,7.0,54,0.00,,,0.00,meteohub,2013-03-03 16:12:00,
2013-03-03 11:17:00,58.3,41.7,30.04,NNE,12,2.0,8.0,54,0.00,,,0.00,meteohub,2013-03-03 16:17:00,
2013-03-03 11:22:00,58.6,42.1,30.04,NW,313,2.0,8.0,54,0.00,,,0.00,meteohub,2013-03-03 16:22:00,
2013-03-03 11:27:00,58.8,41.7,30.05,NNE,19,3.0,8.0,53,0.00,,,0.00,meteohub,2013-03-03 16:27:00,
2013-03-03 11:32:00,59.4,41.2,30.04,NW,305,3.0,6.0,51,0.00,,,0.00,meteohub,2013-03-03 16:32:00,
2013-03-03 11:37:00,59.4,41.7,30.04,NNE,30,1.0,6.0,52,0.00,,,0.00,meteohub,2013-03-03 16:37:00,
2013-03-03 11:42:00,59.7,41.5,30.03,WNW,283,5.0,8.0,51,0.00,,,0.00,meteohub,2013-03-03 16:42:00,
2013-03-03 11:47:00,59.7,40.5,30.03,North,0,4.0,8.0,49,0.00,,,0.00,meteohub,2013-03-03 16:47:00,
2013-03-03 11:52:00,59.5,40.8,30.03,North,5,1.0,8.0,50,0.00,,,0.00,meteohub,2013-03-03 16:52:00,
2013-03-03 11:57:00,59.5,40.3,30.03,WNW,284,4.0,7.0,49,0.00,,,0.00,meteohub,2013-03-03 16:57:00,
2013-03-03 12:02:00,59.7,40.5,30.03,North,11,1.0,10.0,49,0.00,,,0.00,meteohub,2013-03-03 17:02:00,
2013-03-03 12:07:00,59.7,39.9,30.03,NNW,328,3.0,11.0,48,0.00,,,0.00,meteohub,2013-03-03 17:07:00,
2013-03-03 12:12:00,60.1,41.4,30.03,WNW,298,1.0,11.0,50,0.00,,,0.00,meteohub,2013-03-03 17:12:00,
2013-03-03 12:17:00,60.6,40.3,30.03,NW,319,2.0,11.0,47,0.00,,,0.00,meteohub,2013-03-03 17:17:00,
2013-03-03 12:22:00,60.1,39.7,30.03,NNW,348,5.0,9.0,47,0.00,,,0.00,meteohub,2013-03-03 17:22:00,
2013-03-03 12:27:00,59.4,39.2,30.03,WNW,284,3.0,14.0,47,0.00,,,0.00,meteohub,2013-03-03 17:27:00,
2013-03-03 12:32:00,58.8,39.2,30.03,NNE,17,2.0,15.0,48,0.00,,,0.00,meteohub,2013-03-03 17:32:00,
2013-03-03 12:37:00,58.8,39.2,30.02,WNW,288,2.0,15.0,48,0.00,,,0.00,meteohub,2013-03-03 17:37:00,
2013-03-03 12:42:00,59.2,40.1,30.02,North,11,5.0,15.0,49,0.00,,,0.00,meteohub,2013-03-03 17:42:00,
2013-03-03 12:47:00,59.7,40.5,30.02,NNW,331,15.0,15.0,49,0.00,,,0.00,meteohub,2013-03-03 17:47:00,
2013-03-03 12:52:00,59.7,39.9,30.01,North,351,3.0,15.0,48,0.00,,,0.00,meteohub,2013-03-03 17:52:00,
2013-03-03 12:57:00,59.7,41.0,30.01,West,273,4.0,15.0,50,0.00,,,0.00,meteohub,2013-03-03 17:57:00,
2013-03-03 13:02:00,60.6,41.4,30.01,NNW,327,2.0,15.0,49,0.00,,,0.00,meteohub,2013-03-03 18:02:00,
2013-03-03 13:07:00,61.2,41.4,30.01,NNE,20,2.0,11.0,48,0.00,,,0.00,meteohub,2013-03-03 18:07:00,
2013-03-03 13:12:00,61.5,41.7,30.01,West,277,5.0,10.0,48,0.00,,,0.00,meteohub,2013-03-03 18:12:00,
2013-03-03 13:17:00,61.3,41.0,30.00,WNW,290,6.0,10.0,47,0.00,,,0.00,meteohub,2013-03-03 18:17:00,
2013-03-03 13:22:00,60.6,40.8,30.00,West,279,4.0,11.0,48,0.00,,,0.00,meteohub,2013-03-03 18:22:00,
2013-03-03 13:27:00,60.6,41.4,30.00,NW,310,3.0,11.0,49,0.00,,,0.00,meteohub,2013-03-03 18:27:00,
2013-03-03 13:32:00,61.2,41.4,29.99,NW,325,5.0,11.0,48,0.00,,,0.00,meteohub,2013-03-03 18:32:00,
2013-03-03 13:37:00,61.3,41.5,29.99,West,271,11.0,11.0,48,0.00,,,0.00,meteohub,2013-03-03 18:37:00,
2013-03-03 13:42:00,61.2,41.4,29.99,NW,320,2.0,15.0,48,0.00,,,0.00,meteohub,2013-03-03 18:42:00,
2013-03-03 13:47:00,61.3,42.1,29.99,NW,325,3.0,15.0,49,0.00,,,0.00,meteohub,2013-03-03 18:47:00,
2013-03-03 13:52:00,61.5,41.7,29.99,WNW,285,4.0,15.0,48,0.00,,,0.00,meteohub,2013-03-03 18:52:00,
2013-03-03 13:57:00,61.3,41.0,30.00,WNW,282,4.0,18.0,47,0.00,,,0.00,meteohub,2013-03-03 18:57:00,
2013-03-03 14:02:00,61.3,41.0,30.00,NW,321,2.0,18.0,47,0.00,,,0.00,meteohub,2013-03-03 19:02:00,
2013-03-03 14:07:00,62.1,41.0,30.01,North,349,4.0,18.0,46,0.00,,,0.00,meteohub,2013-03-03 19:07:00,
2013-03-03 14:12:00,61.2,41.4,30.00,NNE,28,2.0,14.0,48,0.00,,,0.00,meteohub,2013-03-03 19:12:00,
2013-03-03 14:17:00,61.2,41.9,30.00,West,277,4.0,14.0,49,0.00,,,0.00,meteohub,2013-03-03 19:17:00,
2013-03-03 14:22:00,61.2,41.9,30.00,North,350,2.0,14.0,49,0.00,,,0.00,meteohub,2013-03-03 19:22:00,
2013-03-03 14:27:00,61.2,40.3,29.99,West,267,6.0,13.0,46,0.00,,,0.00,meteohub,2013-03-03 19:27:00,
2013-03-03 14:32:00,61.2,41.4,29.99,WNW,286,6.0,13.0,48,0.00,,,0.00,meteohub,2013-03-03 19:32:00,
2013-03-03 14:37:00,61.2,41.4,30.00,North,355,3.0,12.0,48,0.00,,,0.00,meteohub,2013-03-03 19:37:00,
2013-03-03 14:42:00,60.3,41.0,29.99,West,261,3.0,12.0,49,0.00,,,0.00,meteohub,2013-03-03 19:42:00,
2013-03-03 14:47:00,61.0,41.7,29.99,NW,324,7.0,14.0,49,0.00,,,0.00,meteohub,2013-03-03 19:47:00,
2013-03-03 14:52:00,60.6,40.3,29.99,WNW,291,1.0,14.0,47,0.00,,,0.00,meteohub,2013-03-03 19:52:00,
2013-03-03 14:57:00,59.5,40.3,30.00,NW,323,4.0,14.0,49,0.00,,,0.00,meteohub,2013-03-03 19:57:00,
2013-03-03 15:02:00,59.5,40.8,30.00,NNW,341,3.0,12.0,50,0.00,,,0.00,meteohub,2013-03-03 20:02:00,
2013-03-03 15:07:00,60.3,41.5,30.00,WNW,284,1.0,11.0,50,0.00,,,0.00,meteohub,2013-03-03 20:07:00,
2013-03-03 15:12:00,59.9,40.1,30.00,WSW,239,3.0,14.0,48,0.00,,,0.00,meteohub,2013-03-03 20:12:00,
2013-03-03 15:17:00,59.2,41.0,29.99,WNW,288,6.0,14.0,51,0.00,,,0.00,meteohub,2013-03-03 20:17:00,
2013-03-03 15:22:00,59.4,41.7,29.99,NNE,17,3.0,14.0,52,0.00,,,0.00,meteohub,2013-03-03 20:22:00,
2013-03-03 15:27:00,60.3,41.0,29.99,North,350,2.0,12.0,49,0.00,,,0.00,meteohub,2013-03-03 20:27:00,
2013-03-03 15:32:00,60.4,41.2,29.99,North,351,6.0,11.0,49,0.00,,,0.00,meteohub,2013-03-03 20:32:00,
2013-03-03 15:37:00,60.6,41.4,29.99,NW,311,3.0,11.0,49,0.00,,,0.00,meteohub,2013-03-03 20:37:00,
2013-03-03 15:42:00,61.0,41.7,30.00,WSW,238,9.0,11.0,49,0.00,,,0.00,meteohub,2013-03-03 20:42:00,
2013-03-03 15:47:00,60.3,40.5,30.00,NW,325,0.0,11.0,48,0.00,,,0.00,meteohub,2013-03-03 20:47:00,
2013-03-03 15:52:00,60.3,41.5,30.00,WNW,293,2.0,11.0,50,0.00,,,0.00,meteohub,2013-03-03 20:52:00,
2013-03-03 15:57:00,60.8,42.1,30.00,WNW,298,2.0,11.0,50,0.00,,,0.00,meteohub,2013-03-03 20:57:00,
2013-03-03 16:02:00,60.6,41.4,30.00,West,261,5.0,12.0,49,0.00,,,0.00,meteohub,2013-03-03 21:02:00,
2013-03-03 16:07:00,60.6,41.4,30.00,NW,320,4.0,12.0,49,0.00,,,0.00,meteohub,2013-03-03 21:07:00,
2013-03-03 16:12:00,60.1,40.8,30.00,NNW,331,3.0,12.0,49,0.00,,,0.00,meteohub,2013-03-03 21:12:00,
2013-03-03 16:17:00,60.3,40.5,30.00,NW,322,2.0,10.0,48,0.00,,,0.00,meteohub,2013-03-03 21:17:00,
2013-03-03 16:22:00,60.1,40.8,30.00,WNW,283,3.0,10.0,49,0.00,,,0.00,meteohub,2013-03-03 21:22:00,
2013-03-03 16:27:00,59.5,40.3,30.00,West,277,4.0,10.0,49,0.00,,,0.00,meteohub,2013-03-03 21:27:00,
2013-03-03 16:32:00,59.4,41.2,30.00,NNW,340,1.0,9.0,51,0.00,,,0.00,meteohub,2013-03-03 21:32:00,
2013-03-03 16:37:00,59.4,40.6,30.01,NNW,329,1.0,11.0,50,0.00,,,0.00,meteohub,2013-03-03 21:37:00,
2013-03-03 16:42:00,59.4,41.2,30.01,NNW,346,2.0,11.0,51,0.00,,,0.00,meteohub,2013-03-03 21:42:00,
2013-03-03 16:47:00,59.4,40.6,30.01,WSW,248,1.0,11.0,50,0.00,,,0.00,meteohub,2013-03-03 21:47:00,
2013-03-03 16:52:00,59.0,40.5,30.01,WSW,253,4.0,12.0,50,0.00,,,0.00,meteohub,2013-03-03 21:52:00,
2013-03-03 16:57:00,59.2,41.0,30.01,NW,304,0.0,12.0,51,0.00,,,0.00,meteohub,2013-03-03 21:57:00,
2013-03-03 17:02:00,59.4,40.3,30.02,West,276,3.0,12.0,49,0.00,,,0.00,meteohub,2013-03-03 22:02:00,
2013-03-03 17:07:00,59.7,40.5,30.02,West,273,3.0,11.0,49,0.00,,,0.00,meteohub,2013-03-03 22:07:00,
2013-03-03 17:12:00,60.1,40.3,30.02,WSW,246,5.0,11.0,48,0.00,,,0.00,meteohub,2013-03-03 22:12:00,
2013-03-03 17:17:00,60.3,41.0,30.01,NW,321,0.0,11.0,49,0.00,,,0.00,meteohub,2013-03-03 22:17:00,
2013-03-03 17:22:00,60.3,39.9,30.02,WNW,297,6.0,13.0,47,0.00,,,0.00,meteohub,2013-03-03 22:22:00,
2013-03-03 17:27:00,59.9,39.6,30.02,West,275,6.0,13.0,47,0.00,,,0.00,meteohub,2013-03-03 22:27:00,
2013-03-03 17:32:00,59.4,40.6,30.02,West,272,7.0,13.0,50,0.00,,,0.00,meteohub,2013-03-03 22:32:00,
2013-03-03 17:37:00,58.8,40.8,30.02,WSW,250,4.0,12.0,51,0.00,,,0.00,meteohub,2013-03-03 22:37:00,
2013-03-03 17:42:00,58.6,40.1,30.02,West,281,5.0,12.0,50,0.00,,,0.00,meteohub,2013-03-03 22:42:00,
2013-03-03 17:47:00,58.3,39.7,30.02,WNW,292,3.0,11.0,50,0.00,,,0.00,meteohub,2013-03-03 22:47:00,
2013-03-03 17:52:00,58.1,40.1,30.02,West,277,2.0,11.0,51,0.00,,,0.00,meteohub,2013-03-03 22:52:00,
2013-03-03 17:57:00,58.3,40.8,30.03,NNW,336,4.0,10.0,52,0.00,,,0.00,meteohub,2013-03-03 22:57:00,
2013-03-03 18:02:00,58.3,41.2,30.03,West,281,8.0,11.0,53,0.00,,,0.00,meteohub,2013-03-03 23:02:00,
2013-03-03 18:07:00,57.9,41.4,30.04,NW,311,1.0,11.0,54,0.00,,,0.00,meteohub,2013-03-03 23:07:00,
2013-03-03 18:12:00,57.6,41.9,30.04,WNW,298,3.0,14.0,56,0.00,,,0.00,meteohub,2013-03-03 23:12:00,
2013-03-03 18:17:00,57.0,41.5,30.04,NW,319,0.0,14.0,56,0.00,,,0.00,meteohub,2013-03-03 23:17:00,
2013-03-03 18:22:00,56.8,41.7,30.04,WNW,292,3.0,14.0,57,0.00,,,0.00,meteohub,2013-03-03 23:22:00,
2013-03-03 18:27:00,56.5,41.9,30.04,NW,321,0.0,13.0,58,0.00,,,0.00,meteohub,2013-03-03 23:27:00,
2013-03-03 18:32:00,56.1,41.9,30.05,NNW,332,0.0,8.0,59,0.00,,,0.00,meteohub,2013-03-03 23:32:00,
2013-03-03 18:37:00,55.9,42.3,30.05,NW,304,0.0,8.0,60,0.00,,,0.00,meteohub,2013-03-03 23:37:00,
2013-03-03 18:42:00,55.9,42.6,30.05,North,349,1.0,6.0,61,0.00,,,0.00,meteohub,2013-03-03 23:42:00,
2013-03-03 18:47:00,55.8,42.4,30.05,West,281,0.0,7.0,61,0.00,,,0.00,meteohub,2013-03-03 23:47:00,
2013-03-03 18:52:00,55.8,42.1,30.05,NW,321,0.0,7.0,60,0.00,,,0.00,meteohub,2013-03-03 23:52:00,
2013-03-03 18:57:00,55.8,42.1,30.05,WNW,300,5.0,7.0,60,0.00,,,0.00,meteohub,2013-03-03 23:57:00,
2013-03-03 19:02:00,55.8,42.1,30.06,NNW,340,2.0,7.0,60,0.00,,,0.00,meteohub,2013-03-04 00:02:00,
2013-03-03 19:07:00,55.8,42.1,30.06,NW,322,3.0,7.0,60,0.00,,,0.00,meteohub,2013-03-04 00:07:00,
2013-03-03 19:12:00,55.8,41.7,30.06,WNW,288,4.0,9.0,59,0.00,,,0.00,meteohub,2013-03-04 00:12:00,
2013-03-03 19:17:00,55.8,41.7,30.06,NW,312,0.0,9.0,59,0.00,,,0.00,meteohub,2013-03-04 00:17:00,
2013-03-03 19:22:00,55.8,42.1,30.07,NNE,26,3.0,9.0,60,0.00,,,0.00,meteohub,2013-03-04 00:22:00,
2013-03-03 19:27:00,55.8,42.1,30.07,NNW,346,2.0,9.0,60,0.00,,,0.00,meteohub,2013-03-04 00:27:00,
2013-03-03 19:32:00,55.6,41.9,30.07,NW,309,3.0,8.0,60,0.00,,,0.00,meteohub,2013-03-04 00:32:00,
2013-03-03 19:37:00,55.4,41.7,30.07,WNW,292,6.0,8.0,60,0.00,,,0.00,meteohub,2013-03-04 00:37:00,
2013-03-03 19:42:00,55.2,41.5,30.08,West,271,4.0,8.0,60,0.00,,,0.00,meteohub,2013-03-04 00:42:00,
2013-03-03 19:47:00,55.2,41.5,30.08,West,279,7.0,8.0,60,0.00,,,0.00,meteohub,2013-03-04 00:47:00,
2013-03-03 19:52:00,55.0,41.4,30.08,NW,319,5.0,9.0,60,0.00,,,0.00,meteohub,2013-03-04 00:52:00,
2013-03-03 19:57:00,54.9,41.7,30.08,WNW,286,0.0,9.0,61,0.00,,,0.00,meteohub,2013-03-04 00:57:00,
2013-03-03 20:02:00,54.7,41.5,30.08,WNW,301,3.0,9.0,61,0.00,,,0.00,meteohub,2013-03-04 01:02:00,
2013-03-03 20:07:00,54.5,41.4,30.08,NW,306,3.0,8.0,61,0.00,,,0.00,meteohub,2013-03-04 01:07:00,
2013-03-03 20:12:00,54.3,41.5,30.09,NNW,332,3.0,7.0,62,0.00,,,0.00,meteohub,2013-03-04 01:12:00,
2013-03-03 20:17:00,54.1,41.9,30.09,West,263,8.0,8.0,63,0.00,,,0.00,meteohub,2013-03-04 01:17:00,
2013-03-03 20:22:00,54.0,41.7,30.09,NW,325,2.0,8.0,63,0.00,,,0.00,meteohub,2013-03-04 01:22:00,
2013-03-03 20:27:00,53.8,41.5,30.10,NW,313,0.0,8.0,63,0.00,,,0.00,meteohub,2013-03-04 01:27:00,
2013-03-03 20:32:00,53.6,41.7,30.10,WNW,286,2.0,9.0,64,0.00,,,0.00,meteohub,2013-03-04 01:32:00,
2013-03-03 20:37:00,53.4,41.9,30.10,WSW,248,1.0,9.0,65,0.00,,,0.00,meteohub,2013-03-04 01:37:00,
2013-03-03 20:42:00,53.2,41.7,30.10,WNW,296,1.0,9.0,65,0.00,,,0.00,meteohub,2013-03-04 01:42:00,
2013-03-03 20:47:00,53.1,41.5,30.10,NW,313,0.0,6.0,65,0.00,,,0.00,meteohub,2013-03-04 01:47:00,
2013-03-03 20:52:00,52.9,41.9,30.11,NW,305,2.0,7.0,66,0.00,,,0.00,meteohub,2013-03-04 01:52:00,
2013-03-03 20:57:00,52.9,42.3,30.11,WNW,292,3.0,7.0,67,0.00,,,0.00,meteohub,2013-03-04 01:57:00,
2013-03-03 21:02:00,52.5,42.3,30.11,West,274,3.0,7.0,68,0.00,,,0.00,meteohub,2013-03-04 02:02:00,
2013-03-03 21:07:00,52.5,42.3,30.12,West,279,5.0,6.0,68,0.00,,,0.00,meteohub,2013-03-04 02:07:00,
2013-03-03 21:12:00,52.3,42.4,30.12,West,277,3.0,7.0,69,0.00,,,0.00,meteohub,2013-03-04 02:12:00,
2013-03-03 21:17:00,52.2,42.3,30.12,West,276,2.0,7.0,69,0.00,,,0.00,meteohub,2013-03-04 02:17:00,
2013-03-03 21:22:00,52.0,42.4,30.12,West,269,0.0,7.0,70,0.00,,,0.00,meteohub,2013-03-04 02:22:00,
2013-03-03 21:27:00,52.0,42.4,30.12,West,269,1.0,7.0,70,0.00,,,0.00,meteohub,2013-03-04 02:27:00,
2013-03-03 21:32:00,51.8,42.6,30.12,NNW,339,2.0,7.0,71,0.00,,,0.00,meteohub,2013-03-04 02:32:00,
2013-03-03 21:37:00,51.6,42.4,30.12,West,268,2.0,7.0,71,0.00,,,0.00,meteohub,2013-03-04 02:37:00,
2013-03-03 21:42:00,51.6,43.0,30.12,NW,324,0.0,7.0,72,0.00,,,0.00,meteohub,2013-03-04 02:42:00,
2013-03-03 21:47:00,51.4,42.8,30.13,West,279,0.0,7.0,72,0.00,,,0.00,meteohub,2013-03-04 02:47:00,
2013-03-03 21:52:00,51.4,42.8,30.13,WNW,289,3.0,8.0,72,0.00,,,0.00,meteohub,2013-03-04 02:52:00,
2013-03-03 21:57:00,51.4,42.8,30.13,West,267,4.0,8.0,72,0.00,,,0.00,meteohub,2013-03-04 02:57:00,
2013-03-03 22:02:00,51.4,42.8,30.13,WNW,288,0.0,8.0,72,0.00,,,0.00,meteohub,2013-03-04 03:02:00,
2013-03-03 22:07:00,51.4,42.8,30.13,NW,312,0.0,9.0,72,0.00,,,0.00,meteohub,2013-03-04 03:07:00,
2013-03-03 22:12:00,51.4,42.8,30.14,North,5,2.0,9.0,72,0.00,,,0.00,meteohub,2013-03-04 03:12:00,
2013-03-03 22:17:00,51.4,42.8,30.14,North,349,1.0,9.0,72,0.00,,,0.00,meteohub,2013-03-04 03:17:00,
2013-03-03 22:22:00,51.3,42.6,30.14,WNW,298,1.0,6.0,72,0.00,,,0.00,meteohub,2013-03-04 03:22:00,
2013-03-03 22:27:00,51.3,42.6,30.14,NW,306,1.0,7.0,72,0.00,,,0.00,meteohub,2013-03-04 03:27:00,
2013-03-03 22:32:00,51.3,42.6,30.14,NNW,331,1.0,7.0,72,0.00,,,0.00,meteohub,2013-03-04 03:32:00,
2013-03-03 22:37:00,51.1,42.4,30.14,NW,318,0.0,8.0,72,0.00,,,0.00,meteohub,2013-03-04 03:37:00,
2013-03-03 22:42:00,51.1,42.4,30.14,WNW,303,1.0,8.0,72,0.00,,,0.00,meteohub,2013-03-04 03:42:00,
2013-03-03 22:47:00,50.9,42.3,30.14,NW,305,0.0,8.0,72,0.00,,,0.00,meteohub,2013-03-04 03:47:00,
2013-03-03 22:52:00,50.7,42.4,30.14,WSW,254,7.0,8.0,73,0.00,,,0.00,meteohub,2013-03-04 03:52:00,
2013-03-03 22:57:00,50.7,42.1,30.14,NW,318,2.0,7.0,72,0.00,,,0.00,meteohub,2013-03-04 03:57:00,
2013-03-03 23:02:00,50.5,41.9,30.15,NW,312,0.0,10.0,72,0.00,,,0.00,meteohub,2013-03-04 04:02:00,
2013-03-03 23:07:00,50.5,42.3,30.15,NW,311,1.0,10.0,73,0.00,,,0.00,meteohub,2013-03-04 04:07:00,
2013-03-03 23:13:00,50.4,42.1,30.15,WNW,288,2.0,10.0,73,0.00,,,0.00,meteohub,2013-03-04 04:13:00,
2013-03-03 23:18:00,50.4,42.1,30.15,West,267,7.0,7.0,73,0.00,,,0.00,meteohub,2013-03-04 04:18:00,
2013-03-03 23:23:00,50.2,41.9,30.15,NW,304,0.0,7.0,73,0.00,,,0.00,meteohub,2013-03-04 04:23:00,
2013-03-03 23:28:00,50.2,42.3,30.15,NNW,334,4.0,7.0,74,0.00,,,0.00,meteohub,2013-03-04 04:28:00,
2013-03-03 23:33:00,49.8,41.9,30.15,WNW,294,0.0,7.0,74,0.00,,,0.00,meteohub,2013-03-04 04:33:00,
2013-03-03 23:38:00,49.8,41.9,30.15,WNW,298,0.0,7.0,74,0.00,,,0.00,meteohub,2013-03-04 04:38:00,
2013-03-03 23:43:00,49.6,41.7,30.15,NNW,332,1.0,7.0,74,0.00,,,0.00,meteohub,2013-03-04 04:43:00,
2013-03-03 23:48:00,49.6,41.7,30.15,NW,323,0.0,7.0,74,0.00,,,0.00,meteohub,2013-03-04 04:48:00,
2013-03-03 23:53:00,49.5,41.9,30.14,NNW,346,0.0,7.0,75,0.00,,,0.00,meteohub,2013-03-04 04:53:00,
2013-03-03 23:58:00,49.3,42.1,30.14,NW,306,0.0,7.0,76,0.00,,,0.00,meteohub,2013-03-04 04:58:00,